Погода в Ладоге

Россия / Санкт-Петербург и Ленинградская область     59°37′43″N   30°30′14″E
темп.,
°C
ветер,
м/с
пор.,
м/с
влажн.,
%
обл.,
%
осадки,
мм/ч
давл.,
гПа
погр.,
м
5 августа, чт
чт500:00+10юз22727 0.0 101613
03:00+10юз22736 0.0 101721
06:00+10зюз117413 0.0 101711
09:00+16юз115871 0.0 1017320
12:00+20ю1143100 0.0 10171618
15:00+20ссв2240100 0.0 10162173
18:00+16св2658100 0.0 1016150
21:00+14всв266984 0.0 1016151
6 августа, пт
пт600:00+11ююв118583 0.0 101714
03:00+12зсз11837 0.0 101611
06:00+11ссз118856 0.0 101618
09:00+17св35625 0.0 1016533
12:00+20всв584518 0.0 10152080
15:00+18всв585338 0.0 10151531
18:00+18всв61056100 0.0 10141415
21:00+14всв51267100 0.0 1014912
7 августа, сб
сб700:00+13всв51078100 0.0 1013701
03:00+13всв41084100 0.0 1012771
06:00+13всв51286100 0.0 1011490
09:00+13всв51394100 1.7 1010626
12:00+14всв51295100 3.2 1010671
15:00+15в51196100 3.5 1009733
18:00+15в41098100 2.6 1008581
21:00+15в3899100 4.5 1008406
8 августа, вс
вс800:00+15всв2699100 0.1 1008345
03:00+15вюв1199100 0.2 100863
06:00+15ю119999 0.1 100840
09:00+17зюз249176 0.3 1009335
12:00+20ссз227235 0.1 1009874
15:00+20ссв227875 0.4 1010474
18:00+18св239187 0.7 1011182
21:00+16св229758 0.8 101336
9 августа, пн
пн900:00+14св229868 0.0 101325
03:00+13всв2299100 0.0 101437
06:00+13вюв119821 0.0 101427
09:00+17вюв228530 0.0 1014387
12:00+22вюв236181 0.0 10141050
15:00+24в3353100 0.0 10141451
18:00+21всв566991 0.0 1013448
21:00+18всв41083100 0.1 1011371